GLOBALSTAR M001 [-]

Last updated on Thu Dec 28 2023 00:02:57 GMT+0000 (Coordinated Universal Time)

1 25162U 98008A 23361.57920771 -.00000108 00000+0 -88463-4 0 9997 2 25162 52.0034 97.9229 0002096 174.2362 289.9810 12.38175323177111

Satellite not in orbit

GLOBALSTAR M001 [-]